This demonstration page uses our WeatherBlox Daily Observations layout. Learn more.

Left ArrowRight Arrow

Hourly Observations for March 12, 2015

Temp ( °F °C ) Dew Point ( °F °C ) Humidity (%) Winds ( mph kmh ) Pressure ( in mb ) Visibility ( mi km ) Precip ( " mm )
12:01 am 00:01 Cloudy with Light Rain 57 13.9 55 12.8 93 93 NE 6 9 30.27 1025 4 6 0.01 0.25
12:15 am 00:15 Cloudy with Mist and Fog 57 13.9 55 12.8 93 93 NNE 3 6 30.27 1025 5 8 0.02 0.51
12:53 am 00:53 Cloudy 57 13.9 54 12.2 90 90 N 3 6 30.28 1025 10 16 0.02 0.51
1:05 am 01:05 Cloudy 57 13.9 55 12.8 93 93 Calm 30.30 1026 10 16 0.00 0.00
1:32 am 01:32 Cloudy 57 14 55 13 94 94 N 3 6 30.30 1026 10 16 0.00 0.00
1:53 am 01:53 Cloudy 57 13.9 55 12.8 93 93 NW 3 6 30.28 1026 10 16 0.00 0.00
2:53 am 02:53 Cloudy 57 13.9 54 12.2 90 90 N 3 6 30.29 1026 10 16 0.00 0.00
3:53 am 03:53 Partly Cloudy 53 11.7 52 11.1 96 96 NW 3 6 30.29 1026 9 14 0.00 0.00
4:01 am 04:01 Mostly Cloudy 54 12.2 52 11.1 93 93 NNW 5 7 30.30 1026 9 14 0.00 0.00
4:26 am 04:26 Partly Cloudy 55 12.8 53 11.7 93 93 N 6 9 30.30 1026 10 16 0.00 0.00
4:53 am 04:53 Clear 53 11.7 52 11.1 96 96 NNW 5 7 30.29 1026 10 16 0.00 0.00
5:32 am 05:32 Clear with Mist and Fog 52 11 50 10 94 94 Calm 30.30 1026 2 3 0.00 0.00
5:40 am 05:40 Clear 52 11 52 11 100 100 Calm 30.30 1026 9 14 0.00 0.00
5:46 am 05:46 Clear with Mist and Fog 51 10.6 51 10.6 100 100 N 3 6 30.30 1026 2 3 0.00 0.00
5:50 am 05:50 Clear with Mist and Fog 52 11 52 11 100 100 N 3 6 30.30 1026 1 1 0.00 0.00
5:53 am 05:53 Clear with Fog 52 11.1 51 10.6 97 97 N 3 6 30.30 1026 1 1 0.00 0.00
6:04 am 06:04 Clear with Fog 52 11 52 11 100 100 NNW 3 6 30.30 1026 0 0 0.00 0.00
6:18 am 06:18 Clear with Mist and Fog 52 11 50 10 94 94 NNW 5 7 30.30 1026 1 1 0.00 0.00
6:20 am 06:20 Clear 52 11 50 10 94 94 NNW 5 7 30.30 1026 10 16 0.00 0.00
6:53 am 06:53 Clear 51 10.6 50 10 96 96 NW 5 7 30.29 1026 10 16 0.00 0.00
7:53 am 07:53 Sunny 51 10.6 49 9.4 92 92 NW 5 7 30.29 1026 10 16 0.00 0.00
8:53 am 08:53 Sunny 56 13.3 52 11.1 87 87 NNW 6 9 30.31 1026 10 16 0.00 0.00
9:53 am 09:53 Sunny 61 16.1 52 11.1 72 72 NNW 9 15 30.31 1026 10 16 0.00 0.00
10:53 am 10:53 Sunny 65 18.3 48 8.9 54 54 NNW 10 17 30.30 1026 10 16 0.00 0.00
11:53 am 11:53 Sunny 69 20.6 48 8.9 47 47 NNW 10 17 30.28 1026 10 16 0.00 0.00
12:53 pm 12:53 Sunny 73 22.8 46 7.8 38 38 N 15 24 30.26 1025 10 16 0.00 0.00
1:53 pm 13:53 Sunny 74 23.3 46 7.8 37 37 N 12 19 30.23 1024 10 16 0.00 0.00
2:53 pm 14:53 Sunny 75 23.9 45 7.2 34 34 N 10 17 30.19 1022 10 16 0.00 0.00
3:53 pm 15:53 Sunny 76 24.4 44 6.7 32 32 N 8 13 30.18 1022 10 16 0.00 0.00
4:53 pm 16:53 Sunny 76 24.4 46 7.8 35 35 NW 9 15 30.16 1022 10 16 0.00 0.00
5:53 pm 17:53 Sunny 75 23.9 47 8.3 37 37 WNW 7 11 30.14 1021 10 16 0.00 0.00
6:53 pm 18:53 Sunny 71 21.7 48 8.9 44 44 WNW 5 7 30.14 1021 10 16 0.00 0.00
7:53 pm 19:53 Clear 66 18.9 49 9.4 54 54 W 6 9 30.14 1021 10 16 0.00 0.00
8:53 pm 20:53 Clear 64 17.8 49 9.4 58 58 WNW 5 7 30.14 1021 10 16 0.00 0.00
9:53 pm 21:53 Clear 61 16.1 50 10 67 67 N 5 7 30.15 1021 10 16 0.00 0.00
10:53 pm 22:53 Clear 59 15 50 10 72 72 N 3 6 30.16 1021 10 16 0.00 0.00
11:53 pm 23:53 Clear 58 14.4 50 10 75 75 NNW 5 7 30.15 1021 10 16 0.00 0.00

Powered by AerisWeather